Total_Precipitation_Accumulation
3.05 3.05 3.02 3.05 2.95 3.07 3.21 3.31 3.19 3.09 3.00 2.82 2.61 2.61 2.79 2.88 2.98 3.00 3.09 3.16 2.94 3.12 3.67 4.09 4.20 4.26 4.21 4.11 4.02 3.96 3.83 3.88 3.75 3.38 2.89 2.58 2.44 2.27 2.21 2.17 2.22 2.24 2.21
3.44 3.45 3.50 3.48 3.23 3.25 3.40 3.54 3.43 3.32 3.08 2.93 2.76 2.74 2.80 2.76 2.85 3.05 3.11 3.18 3.05 3.01 3.45 4.01 4.43 4.65 4.65 4.64 4.44 4.16 3.93 3.79 3.74 3.62 3.35 2.94 2.71 2.52 2.39 2.23 2.18 2.15 2.08
3.79 3.84 3.99 3.96 3.66 3.61 3.73 3.84 3.81 3.68 3.30 3.01 2.96 3.02 3.01 3.00 2.84 2.84 3.07 3.17 3.06 3.13 3.38 3.57 3.93 4.25 4.48 4.59 4.64 4.44 4.19 3.88 3.71 3.65 3.62 3.37 3.04 2.77 2.57 2.42 2.33 2.23 2.09
3.86 4.06 3.98 3.81 3.78 3.92 4.18 4.35 4.24 4.16 3.95 3.72 3.55 3.25 3.04 2.97 2.85 2.96 2.97 3.01 3.30 3.23 3.27 3.16 3.37 3.73 4.05 4.40 4.70 4.76 4.57 4.25 3.90 3.70 3.66 3.52 3.22 2.87 2.62 2.46 2.40 2.33 2.21
3.96 4.24 4.28 4.26 4.15 4.21 4.36 4.19 4.33 4.25 4.41 4.25 3.76 3.48 3.20 3.02 2.95 2.94 2.99 2.95 3.08 3.24 3.23 3.05 3.13 3.42 3.71 4.11 4.37 4.72 4.87 4.66 4.31 3.97 3.82 3.72 3.44 3.12 2.81 2.60 2.45 2.37 2.28
4.30 4.52 4.47 4.52 4.55 4.67 4.58 4.54 4.60 4.38 4.30 4.26 3.84 3.60 3.34 3.04 2.99 2.90 2.76 2.81 2.88 2.77 2.86 2.90 3.02 2.96 3.28 3.66 3.97 4.37 4.88 5.03 4.88 4.50 4.22 4.11 3.80 3.37 3.00 2.79 2.64 2.54 2.43
4.88 4.99 5.00 4.97 4.80 4.74 4.66 4.58 4.58 4.49 4.20 4.05 4.10 3.71 3.18 2.74 2.53 2.44 2.45 2.55 2.54 2.48 2.59 2.83 3.03 2.96 2.87 3.09 3.47 4.02 4.75 5.15 5.18 4.97 4.62 4.41 4.03 3.55 3.23 3.01 2.81 2.63 2.48
5.65 5.49 5.48 5.14 4.82 4.71 4.60 4.50 4.42 4.28 3.93 3.81 3.90 3.92 3.37 2.87 2.32 2.02 2.11 2.13 2.21 2.37 2.42 2.36 2.57 2.68 2.60 2.72 2.69 3.12 3.64 4.23 4.67 4.90 4.79 4.49 4.15 3.75 3.42 3.20 3.10 3.01 2.84
5.74 5.53 5.26 5.07 4.85 4.67 4.51 4.49 4.41 4.29 3.97 3.78 3.76 4.02 3.77 3.22 2.61 2.25 2.01 2.03 2.16 2.28 2.25 2.20 2.22 2.28 2.34 2.48 2.50 2.67 2.92 3.26 3.86 4.30 4.46 4.31 4.03 3.72 3.50 3.40 3.36 3.40 3.38
5.35 4.99 4.79 4.82 4.69 4.47 4.28 3.98 3.86 3.89 3.85 3.67 3.60 3.48 3.38 3.22 3.01 2.66 2.33 2.27 2.31 2.30 2.21 2.18 2.23 2.34 2.41 2.55 2.56 2.44 2.46 2.59 2.99 3.50 3.98 4.04 3.86 3.62 3.51 3.58 3.63 3.75 3.80
4.69 4.46 4.37 4.46 4.36 4.11 3.92 3.65 3.46 3.31 3.32 3.41 3.44 3.34 3.18 3.03 2.80 2.66 2.48 2.35 2.31 2.23 2.15 2.13 2.18 2.29 2.37 2.38 2.34 2.23 2.26 2.29 2.50 2.77 3.19 3.62 3.78 3.78 3.73 3.76 3.81 3.83 3.90
4.11 3.81 3.62 3.52 3.45 3.28 3.18 3.15 3.10 3.05 3.06 3.14 3.17 3.12 3.01 2.91 2.81 2.78 2.63 2.39 2.32 2.32 2.23 2.09 1.99 2.00 2.06 2.18 2.15 2.28 2.17 2.18 2.27 2.38 2.46 2.74 3.10 3.38 3.57 3.68 3.66 3.78 3.90
3.46 3.12 2.93 2.80 2.77 2.73 2.67 2.72 2.78 2.81 2.79 2.86 2.83 2.81 2.75 2.59 2.56 2.73 2.82 2.65 2.47 2.30 2.26 2.16 2.00 2.03 1.94 2.04 2.26 2.32 2.15 2.05 2.10 2.14 2.08 2.12 2.38 2.73 2.87 3.06 3.25 3.41 3.62
2.78 2.68 2.59 2.42 2.38 2.41 2.40 2.55 2.54 2.45 2.48 2.52 2.45 2.51 2.50 2.42 2.45 2.56 2.69 2.88 2.85 2.55 2.33 2.20 2.08 2.05 2.06 2.07 2.24 2.28 2.00 1.86 1.82 1.90 1.94 1.92 1.96 2.13 2.28 2.35 2.52 2.69 2.90
2.29 2.26 2.23 2.16 2.06 2.01 2.00 2.04 2.03 2.06 2.16 2.12 2.14 2.15 2.15 2.21 2.30 2.36 2.47 2.74 3.00 2.87 2.56 2.32 2.25 2.17 2.11 2.17 2.37 2.10 1.94 1.88 1.71 1.64 1.65 1.64 1.69 1.80 1.93 1.94 1.94 2.04 2.16
1.98 1.96 1.89 1.83 1.84 1.84 1.78 1.71 1.69 1.74 1.82 1.87 1.93 1.93 1.91 1.93 2.05 2.08 2.16 2.35 2.65 2.86 2.66 2.20 2.13 2.08 2.11 1.98 2.24 2.01 1.96 1.94 1.64 1.45 1.40 1.42 1.46 1.53 1.60 1.64 1.69 1.73 1.81
1.82 1.75 1.74 1.73 1.62 1.58 1.61 1.65 1.61 1.65 1.77 1.79 1.75 1.78 1.79 1.86 1.97 1.97 2.01 2.12 2.29 2.51 2.66 2.38 2.20 2.13 2.11 2.15 2.15 1.99 1.85 1.74 1.59 1.49 1.30 1.26 1.29 1.37 1.38 1.40 1.49 1.56 1.60
1.72 1.71 1.69 1.64 1.45 1.39 1.52 1.59 1.55 1.53 1.66 1.67 1.66 1.72 1.72 1.76 1.85 1.89 1.99 2.09 2.23 2.40 2.52 2.57 2.40 2.24 2.15 2.14 2.17 2.12 1.83 1.63 1.57 1.59 1.37 1.24 1.18 1.17 1.26 1.26 1.29 1.40 1.50
1.57 1.57 1.48 1.46 1.39 1.33 1.39 1.42 1.42 1.40 1.44 1.52 1.55 1.62 1.68 1.77 1.76 1.80 1.87 1.93 2.05 2.14 2.34 2.44 2.34 2.24 2.16 2.06 2.22 2.09 1.94 2.04 1.67 1.54 1.41 1.29 1.20 1.16 1.37 1.40 1.20 1.21 1.29
1.43 1.43 1.37 1.32 1.31 1.28 1.17 1.13 1.17 1.25 1.34 1.34 1.31 1.43 1.52 1.60 1.63 1.73 1.72 1.78 1.88 2.07 2.25 2.33 2.20 2.07 2.02 2.05 2.18 2.19 2.09 2.01 1.84 1.50 1.46 1.36 1.27 1.26 1.56 2.07 1.56 1.26 1.24
1.22 1.23 1.22 1.19 1.19 1.11 1.00 1.02 1.07 1.08 1.20 1.23 1.21 1.26 1.30 1.36 1.38 1.42 1.40 1.57 1.76 1.94 2.07 2.17 2.11 2.05 2.00 2.14 2.11 2.04 2.01 1.98 1.83 1.62 1.59 1.45 1.55 1.80 2.28 2.88 2.39 1.77 1.54
1.30 1.25 1.22 1.17 1.10 0.95 0.96 0.94 0.95 0.99 1.08 1.18 1.26 1.25 1.16 1.14 1.11 1.05 1.10 1.23 1.46 1.72 1.98 2.10 2.04 2.03 2.01 2.07 2.16 2.13 2.10 2.16 2.10 1.74 1.67 1.60 1.78 2.55 3.17 3.43 2.96 2.11 1.79
1.46 1.36 1.24 1.18 1.11 1.01 0.94 0.80 0.77 0.84 1.03 1.17 1.26 1.25 1.05 0.96 1.07 1.05 1.09 1.10 1.19 1.35 1.63 1.93 2.03 1.94 1.97 2.07 2.27 2.34 2.28 2.25 2.18 1.91 1.92 1.88 2.03 2.82 3.02 3.14 2.99 2.19 1.85
1.45 1.37 1.24 1.18 1.13 0.95 0.84 0.74 0.74 0.79 0.94 0.97 1.00 1.09 1.15 1.15 1.07 1.11 1.13 1.22 1.27 1.36 1.44 1.58 1.82 1.80 1.79 1.98 2.18 2.23 2.21 2.16 2.09 1.95 1.97 2.08 2.20 2.69 2.62 2.69 2.72 2.19 1.87
1.39 1.26 1.17 1.13 1.09 0.94 0.86 0.81 0.83 0.85 0.91 0.86 0.82 0.88 0.95 0.99 0.97 1.03 1.13 1.33 1.40 1.51 1.47 1.63 1.64 1.58 1.61 1.68 1.70 1.85 2.15 2.34 2.25 1.95 1.82 1.95 2.10 2.39 2.45 2.47 2.32 2.12 1.91
1.33 1.15 1.07 1.09 1.04 0.99 0.88 0.74 0.72 0.74 0.86 0.87 0.89 0.95 0.88 0.77 0.81 0.91 1.12 1.40 1.58 1.63 1.66 1.78 1.74 1.72 1.62 1.60 1.55 1.64 2.02 2.33 2.32 2.11 1.79 1.81 1.93 2.14 2.39 2.32 2.10 1.93 1.94